Weather History for Chillicothe, MO

Change the Weather History Date:

Monday, February 18, 2013

  Actual Average (KIRK) Record (KIRK)
Temperature  
Mean Temperature 40 °F 30 °F  
Max Temperature 55 °F 40 °F 66 °F (1930)
Min Temperature 25 °F 21 °F -14 °F (1936)
Degree Days  
Heating Degree Days 24 35  
Month to date heating degree days 659  
Since 1 July heating degree days 4206  
Cooling Degree Days 0 0  
Month to date cooling degree days 0  
Year to date cooling degree days 0  
Moisture  
Dew Point 29 °F    
Average Humidity 64    
Maximum Humidity 86    
Minimum Humidity 52    
Precipitation  
Precipitation 0.15 in 0.05 in 1.07 in (1926)
Month to date precipitation 0.97  
Year to date precipitation 2.24  
Sea Level Pressure  
Sea Level Pressure 29.74 in    
Wind  
Wind Speed 10 mph (West)    
Max Wind Speed 21 mph    
Max Gust Speed 34 mph    
T = Trace of Precipitation, MM = Missing Value Source: NWS Daily Summary

Daily Weather History Graph

Daily Weather History Graph

Search for Another Location

Airport:

Trip Planner

Search our weather history database for the weather conditions in past years. The results will help you decide how hot, cold, wet, or windy it might be!

Date:

Astronomy

Feb. 18, 2013 Rise Set
Actual Time 7:02 AM CST 5:54 PM CST
Civil Twilight 6:35 AM CST 6:21 PM CST
Nautical Twilight 6:03 AM CST 6:53 PM CST
Astronomical Twilight 5:32 AM CST 7:24 PM CST
Moon 11:41 AM CST (2/18) 1:42 AM CST (2/18)
Length of Visible Light 11h 46m
Length of Day
10h 51m
First Quarter, 58% of the Moon is Illuminated
Feb 18
First Quarter
Feb 25
Full
Mar 4
Last Quarter
Mar 11
New
Mar 19
First Quarter

Hourly Weather History & Observations

Time (CST) Temp. Windchill Dew Point Humidity Pressure Visibility Wind Dir Wind Speed Gust Speed Precip Events Conditions
12:52 AM 43.0 °F 38.8 °F 28.0 °F 56% 29.72 in - SE 6.9 mph - N/A   Unknown
1:52 AM 44.1 °F 40.1 °F 28.9 °F 55% 29.68 in - SSE 6.9 mph - N/A   Unknown
2:52 AM 46.9 °F - 30.0 °F 52% 29.65 in - SSE 9.2 mph - N/A   Unknown
3:52 AM 46.9 °F - 30.0 °F 52% 29.62 in - SSE 9.2 mph - N/A   Unknown
4:52 AM 46.0 °F 42.5 °F 30.0 °F 54% 29.60 in - SSE 6.9 mph - N/A   Unknown
5:52 AM 48.0 °F - 30.9 °F 52% 29.61 in - South 4.6 mph - N/A   Unknown
6:52 AM 46.9 °F - 32.0 °F 56% 29.60 in - South 8.1 mph - N/A   Unknown
7:52 AM 48.0 °F - 34.0 °F 58% 29.61 in - South 6.9 mph - N/A   Unknown
8:52 AM 51.1 °F - 37.0 °F 59% 29.60 in - South 8.1 mph - N/A   Unknown
9:52 AM 55.0 °F - 39.9 °F 57% 29.59 in - South 16.1 mph 26.5 mph N/A   Unknown
10:52 AM 55.0 °F - 42.1 °F 62% 29.58 in - South 11.5 mph - N/A   Unknown
11:52 AM 51.1 °F - 46.9 °F 86% 29.60 in - WNW 11.5 mph 19.6 mph 0.05 in   Unknown
12:52 PM 41.0 °F 34.7 °F 37.0 °F 86% 29.64 in - NW 10.4 mph 20.7 mph 0.06 in   Unknown
1:52 PM 41.0 °F 34.7 °F 36.0 °F 82% 29.63 in - NNW 10.4 mph 19.6 mph 0.03 in   Unknown
2:52 PM 39.9 °F 32.1 °F 35.1 °F 83% 29.66 in - NNW 13.8 mph 25.3 mph 0.01 in   Unknown
3:52 PM 37.0 °F 26.4 °F 30.0 °F 76% 29.73 in - NW 20.7 mph 34.5 mph N/A   Unknown
4:52 PM 34.0 °F 24.2 °F 26.1 °F 73% 29.80 in - NW 15.0 mph 21.9 mph N/A   Unknown
5:52 PM 33.1 °F 22.6 °F 23.0 °F 66% 29.85 in - NW 16.1 mph 26.5 mph N/A   Unknown
6:52 PM 32.0 °F 22.5 °F 19.9 °F 61% 29.91 in - NW 12.7 mph 20.7 mph N/A   Unknown
7:52 PM 30.0 °F 20.0 °F 18.0 °F 61% 29.94 in - NW 12.7 mph 21.9 mph N/A   Unknown
8:52 PM 28.9 °F 18.6 °F 16.0 °F 58% 29.98 in - NW 12.7 mph 26.5 mph N/A   Unknown
9:52 PM 27.0 °F 19.5 °F 17.1 °F 66% 30.00 in - NW 6.9 mph - N/A   Unknown
10:52 PM 26.1 °F 15.0 °F 15.1 °F 63% 30.02 in - NW 12.7 mph 20.7 mph N/A   Unknown
11:52 PM 25.0 °F 13.1 °F 14.0 °F 63% 30.05 in - WNW 13.8 mph 24.2 mph N/A   Unknown